Wind_Speed
28 30 31 32 33 33 31 28 21 19 24 26 29 23 28 23 20 25 22 19 19 18 16 13 13 10 7 4 1 1 1 0 1 1 2 3 4 5 5 6 7 8 9 11 13 14 15 16 17
29 30 31 36 37 35 30 25 22 26 26 38 29 28 26 21 27 24 23 23 20 17 14 11 11 10 7 3 1 2 1 0 1 1 2 3 4 5 6 7 9 9 10 12 14 15 16 18 19
33 33 35 37 39 40 33 21 18 21 35 38 32 31 32 30 24 25 23 21 17 13 7 7 14 12 10 6 4 2 1 1 1 0 1 2 3 4 6 8 10 11 13 14 15 17 18 19 19
37 38 40 42 40 34 32 30 27 37 36 38 38 35 34 34 28 26 26 27 21 19 10 9 11 15 12 10 8 4 3 2 2 1 2 3 5 6 9 10 12 13 14 16 17 18 19 20 21
44 44 46 46 41 36 33 34 38 38 39 42 45 37 38 35 31 29 27 26 25 27 23 15 11 13 10 8 5 5 4 4 3 3 5 5 8 9 11 12 14 16 17 18 19 20 22 22 23
50 49 52 49 45 40 35 37 41 40 39 45 46 40 40 42 36 32 30 28 28 27 23 17 15 13 11 7 5 5 5 5 5 6 7 9 11 11 13 14 17 19 19 20 21 23 24 23 25
56 57 56 52 49 48 41 41 45 44 45 48 46 49 40 45 44 37 34 33 30 28 25 21 18 13 8 9 9 9 11 11 11 11 12 14 14 14 15 16 18 21 21 21 22 24 25 26 26
62 66 63 60 55 54 50 47 50 55 48 46 50 50 42 46 48 43 39 37 35 32 28 23 21 18 14 8 10 14 15 15 15 15 17 17 18 18 17 18 20 22 23 23 23 22 24 24 25
61 66 68 66 63 62 61 55 60 56 51 50 50 46 43 55 44 42 42 40 38 34 29 28 25 22 19 18 16 15 15 17 18 19 20 20 21 20 20 22 23 23 25 25 24 24 24 25 24
62 67 64 65 70 72 69 67 65 63 56 54 51 49 47 53 43 42 44 40 38 35 32 31 28 25 22 21 20 18 18 18 18 19 22 24 24 23 24 26 26 27 27 28 25 24 25 25 25
63 64 63 66 68 71 75 77 74 70 64 57 56 53 51 55 43 45 43 41 40 39 36 33 32 29 26 24 24 22 23 24 24 25 27 26 26 25 27 29 30 31 31 29 28 28 27 28 26
68 66 66 69 71 74 75 80 82 78 68 66 65 60 59 56 51 47 46 43 42 39 35 35 33 32 30 27 28 25 26 26 26 27 28 26 26 29 31 32 33 34 33 30 33 31 31 32 26
74 72 73 73 75 78 77 79 81 81 77 75 71 68 65 64 58 52 50 48 44 41 34 36 32 35 35 34 31 29 29 29 29 28 27 28 30 32 33 34 35 36 36 32 34 30 32 30 22
70 75 78 79 80 82 82 84 83 75 76 82 79 76 72 69 64 58 56 52 50 45 38 36 34 36 37 37 35 34 32 31 29 30 31 32 32 33 33 36 36 36 34 34 34 28 28 27 20
62 68 73 75 78 81 80 86 84 74 71 79 86 84 80 74 73 66 62 58 55 50 46 43 39 40 41 38 38 38 34 31 30 31 32 33 32 31 33 34 35 35 33 30 27 26 26 21 20
57 56 63 66 68 73 76 88 81 78 74 76 79 85 85 81 77 72 68 64 61 57 51 48 47 44 45 42 42 41 38 33 34 33 31 31 32 32 33 34 33 31 28 28 27 28 21 23 23
51 50 49 50 46 44 62 83 82 81 77 79 78 80 83 81 80 77 73 70 66 61 57 52 50 49 50 47 47 46 42 36 36 35 30 30 31 31 34 35 35 32 28 29 25 20 24 23 23
36 33 32 34 34 34 43 64 76 82 81 77 78 78 81 81 80 79 75 72 68 66 63 56 55 55 54 51 52 48 44 36 35 34 31 32 33 34 36 36 34 30 29 29 23 24 26 27 26
39 39 42 44 43 36 44 57 67 67 74 80 77 77 81 79 70 75 77 72 69 69 66 58 58 59 56 54 52 48 44 39 34 35 33 35 35 36 37 38 34 30 32 30 31 31 31 31 28
38 38 41 39 36 37 40 50 56 57 62 75 80 80 83 80 72 71 74 73 70 72 67 59 56 59 54 54 52 49 46 42 37 35 36 38 38 38 37 36 34 32 32 32 34 38 37 33 29
35 36 36 36 34 37 38 45 48 54 60 70 82 83 84 80 73 69 72 70 68 71 66 61 56 56 55 56 52 51 46 43 37 33 38 37 37 38 37 35 36 34 31 35 36 39 43 37 34
34 23 32 29 32 33 31 44 40 38 47 68 77 85 84 79 75 72 70 69 64 66 60 58 55 57 58 59 54 49 44 42 39 37 41 38 39 37 38 35 37 36 34 38 36 42 42 39 34
23 25 30 25 29 33 37 40 40 36 38 44 65 82 82 79 77 72 70 68 63 61 56 57 57 60 62 58 54 48 45 41 39 41 36 38 39 37 37 38 37 35 36 39 36 41 45 31 22
24 22 22 25 26 33 28 32 32 31 39 39 47 70 80 80 78 75 70 69 62 58 56 57 59 61 62 57 53 48 44 42 42 41 38 38 37 37 39 37 34 34 38 42 35 39 29 18 22
16 24 23 22 23 32 24 34 39 36 31 38 38 40 62 74 76 76 72 70 62 58 56 58 58 62 60 55 51 45 43 42 40 40 38 39 39 38 36 32 31 33 36 44 48 36 34 30 17
22 23 26 28 24 30 29 36 29 26 28 25 41 41 39 54 76 76 74 71 66 60 56 55 57 61 58 54 47 43 43 40 38 39 40 40 37 35 33 30 30 33 35 39 45 40 35 26 24
21 28 23 30 28 30 23 22 25 29 17 26 38 44 43 48 71 75 76 72 65 60 57 54 56 58 57 50 44 43 43 38 39 41 41 38 34 33 32 30 32 35 34 36 37 26 21 24 19
21 23 26 27 33 31 21 27 30 19 13 6 38 41 45 44 66 71 74 71 65 62 59 56 57 57 54 48 46 45 40 38 42 40 39 34 33 33 33 33 33 34 33 32 31 35 34 26 26
21 25 25 28 28 31 29 23 25 18 8 16 18 38 41 36 51 52 73 74 69 66 63 60 59 58 58 51 49 44 40 44 40 37 31 32 33 32 31 32 33 32 33 32 35 32 33 25 28
26 27 28 32 32 30 29 28 22 21 13 8 16 33 49 32 40 53 65 71 69 67 65 63 59 61 57 52 51 46 48 42 37 34 31 30 28 29 31 32 31 30 29 30 31 38 36 41 38
Wind_Direction
234 236 236 234 234 230 224 214 225 234 233 239 228 211 204 204 196 213 221 222 221 216 211 220 220 206 193 192 139 150 120 61 88 88 89 89 78 73 55 41 31 18 3 355 349 344 341 337 335
236 237 238 238 235 234 229 230 228 240 236 238 231 219 207 206 217 216 223 219 225 231 234 249 247 233 209 219 237 286 225 205 124 101 89 75 58 34 22 14 7 354 345 339 335 333 329 327 324
248 243 241 240 238 236 233 224 242 242 235 238 229 221 218 220 213 218 223 223 224 226 216 300 270 244 236 252 268 258 195 179 140 110 27 17 14 3 351 350 347 338 332 330 328 330 327 324 321
250 249 248 245 243 240 238 234 237 230 233 236 229 228 226 222 217 223 227 232 228 237 249 305 295 253 264 271 254 232 188 179 186 225 290 313 328 330 333 333 328 323 323 325 327 325 326 324 322
256 254 251 250 245 240 236 233 232 235 228 233 236 227 233 225 229 228 232 236 237 240 248 284 293 266 276 282 253 233 211 216 228 253 283 308 312 319 320 319 316 316 321 324 326 327 328 328 325
254 254 257 255 254 250 238 236 239 237 231 231 239 234 239 239 237 234 239 240 241 245 251 269 269 278 270 257 235 248 251 252 258 270 289 293 298 309 309 315 312 315 318 324 327 332 329 328 325
249 251 254 255 255 252 242 241 241 236 229 232 238 243 240 245 246 243 242 244 243 245 255 264 262 272 267 247 243 255 282 283 283 282 284 289 298 302 303 306 309 312 318 324 324 325 329 325 324
248 247 248 250 251 252 246 238 243 236 226 226 231 238 243 250 246 250 248 248 248 249 255 258 256 261 262 261 263 268 276 277 272 279 285 290 291 291 297 300 304 310 317 320 320 322 324 322 321
248 247 247 247 247 247 245 240 239 240 231 227 227 228 232 244 249 252 252 249 250 251 254 255 256 260 264 267 274 275 275 271 273 280 285 285 285 292 297 298 301 308 314 314 319 321 319 317 318
252 250 250 248 246 245 243 239 239 240 235 230 232 227 229 242 240 243 247 247 247 249 250 253 255 257 260 266 268 273 275 277 276 281 283 285 288 292 296 297 304 307 307 306 315 318 313 315 313
258 255 252 250 247 247 245 241 237 236 236 231 231 233 235 240 233 237 242 245 247 247 246 251 255 257 257 260 263 266 271 271 276 279 282 285 284 287 288 293 299 301 303 303 308 314 322 313 306
256 256 253 251 249 247 245 243 239 235 232 232 233 231 234 236 235 233 237 240 242 243 243 249 254 260 259 257 260 262 266 269 275 277 280 282 281 279 281 289 293 295 300 298 310 302 304 314 303
252 250 249 249 248 247 247 245 241 239 233 230 232 232 232 236 233 233 237 237 239 240 238 247 249 256 259 261 263 263 265 270 274 277 277 279 278 279 283 286 291 292 296 297 301 306 307 306 290
256 253 249 246 246 247 245 245 245 239 238 235 232 231 230 234 235 234 235 237 237 241 239 239 241 250 255 260 263 264 265 269 273 275 274 278 278 279 286 288 291 289 292 292 297 305 304 294 280
259 257 256 251 251 249 250 245 244 240 239 238 236 232 231 231 235 233 235 236 237 238 240 240 241 244 249 253 258 261 263 268 273 274 273 276 276 279 283 285 286 290 297 303 299 302 298 274 275
265 260 257 255 256 256 254 246 244 243 237 238 239 236 232 233 232 232 234 234 235 235 236 239 240 241 245 248 252 256 259 260 266 271 270 272 277 282 285 287 283 288 293 301 302 299 277 269 277
267 266 261 260 255 260 253 251 247 245 239 236 235 236 234 233 234 231 230 233 233 235 236 233 238 240 244 246 248 251 255 258 265 273 277 277 279 281 283 282 280 282 291 297 296 283 277 276 274
267 260 254 252 247 257 265 253 250 246 244 239 236 236 236 231 232 234 231 231 233 233 233 230 231 235 239 242 246 249 253 257 265 275 275 279 279 278 277 276 277 285 285 288 285 279 280 273 273
260 256 257 249 251 263 263 260 253 250 249 242 235 234 232 233 229 234 233 232 233 233 232 228 230 234 237 240 245 250 257 260 263 268 271 275 274 274 274 275 278 281 290 290 291 285 282 271 271
256 257 258 252 255 256 263 263 257 256 247 242 236 231 232 230 227 230 231 231 230 232 232 231 225 232 234 239 243 248 254 259 262 268 271 272 269 270 271 277 279 281 288 294 293 297 281 266 266
259 258 262 265 258 253 262 269 268 268 255 242 237 232 230 228 225 227 230 229 229 231 229 231 223 230 229 236 242 246 252 258 269 268 266 265 263 265 269 274 275 278 287 291 298 307 291 260 252
256 252 257 258 258 262 263 272 275 273 263 246 236 233 230 228 223 224 227 227 226 229 226 225 223 225 226 233 241 246 249 259 262 263 263 260 260 262 268 268 273 287 285 290 295 304 302 279 250
260 237 245 253 259 267 269 272 277 270 259 253 238 232 228 226 222 219 225 227 224 224 220 220 219 218 223 235 240 243 244 256 259 261 263 260 263 266 271 271 277 283 285 289 286 302 302 272 254
239 246 256 265 267 267 281 275 288 282 270 241 233 231 225 221 219 216 219 224 222 221 216 215 215 216 222 230 235 238 246 252 257 258 257 259 265 268 269 273 277 280 290 292 290 301 290 250 256
257 271 276 275 272 279 282 273 272 289 275 233 224 230 227 213 215 215 217 220 217 218 216 214 210 213 220 225 229 236 243 249 252 255 257 259 262 265 269 275 281 285 290 297 299 305 287 261 259
249 260 268 282 280 279 267 278 285 279 281 238 213 199 218 217 209 211 213 217 217 213 213 214 210 212 217 222 226 231 238 243 249 254 255 258 262 268 274 280 286 287 289 293 315 311 297 257 288
256 263 278 281 292 293 305 294 286 264 274 239 222 201 195 215 207 206 210 214 214 211 208 209 208 211 216 220 219 227 232 241 247 250 253 258 264 268 273 277 280 285 289 303 298 307 301 319 285
272 274 272 277 285 289 292 292 299 286 286 269 225 202 187 206 204 200 207 210 210 209 206 206 208 212 216 214 219 224 231 238 244 245 251 259 264 266 271 276 280 287 293 298 303 315 332 299 292
288 288 282 274 271 282 289 290 312 285 230 305 255 207 191 187 198 198 201 205 205 208 205 203 205 208 213 212 216 223 229 233 240 245 254 259 264 269 276 277 281 290 294 302 307 326 318 301 300
283 280 271 270 274 272 274 279 290 286 306 286 235 200 195 184 193 197 198 202 204 208 206 204 203 207 211 212 217 221 227 233 242 248 253 260 265 269 273 278 287 291 293 297 307 302 309 311 304
Height
5888 5890 5891 5892 5895 5895 5898 5903 5906 5909 5907 5907 5906 5911 5910 5913 5914 5910 5914 5915 5915 5915 5915 5915 5915 5916 5917 5917 5918 5918 5919 5919 5919 5918 5917 5917 5917 5917 5917 5917 5917 5917 5916 5916 5915 5913 5912 5910 5909
5885 5887 5888 5888 5890 5892 5897 5902 5904 5905 5905 5899 5905 5908 5911 5909 5907 5911 5911 5912 5914 5915 5915 5915 5916 5916 5917 5917 5918 5918 5918 5918 5918 5918 5918 5918 5918 5918 5918 5917 5917 5917 5916 5915 5914 5912 5910 5909 5907
5881 5882 5883 5883 5885 5887 5894 5900 5905 5904 5898 5896 5901 5903 5903 5904 5906 5907 5909 5911 5913 5914 5915 5915 5916 5916 5916 5916 5917 5917 5916 5917 5917 5917 5918 5918 5917 5917 5917 5917 5916 5915 5914 5913 5912 5910 5909 5907 5905
5876 5876 5877 5876 5880 5888 5891 5893 5894 5892 5893 5893 5895 5898 5900 5899 5904 5905 5906 5907 5910 5912 5912 5913 5913 5914 5915 5915 5915 5914 5915 5916 5916 5916 5916 5916 5916 5915 5916 5915 5915 5914 5912 5912 5910 5908 5907 5905 5902
5867 5868 5868 5870 5876 5883 5886 5888 5886 5888 5890 5888 5888 5893 5894 5897 5899 5902 5903 5904 5906 5908 5910 5912 5912 5912 5913 5912 5913 5913 5913 5914 5914 5914 5914 5914 5914 5914 5914 5913 5913 5911 5911 5910 5908 5906 5904 5902 5899
5858 5860 5859 5864 5871 5876 5882 5881 5879 5883 5885 5885 5885 5887 5889 5888 5895 5898 5900 5901 5903 5905 5907 5909 5910 5909 5910 5910 5911 5911 5912 5912 5912 5912 5912 5912 5912 5912 5911 5911 5910 5909 5908 5907 5905 5903 5901 5899 5897
5849 5849 5851 5856 5862 5865 5873 5875 5873 5875 5876 5879 5881 5879 5886 5883 5887 5894 5896 5897 5899 5901 5903 5906 5907 5907 5907 5908 5909 5909 5910 5910 5910 5910 5910 5910 5910 5909 5909 5908 5907 5906 5905 5903 5903 5901 5899 5897 5895
5836 5837 5838 5844 5851 5855 5862 5864 5863 5861 5867 5871 5871 5875 5882 5878 5881 5886 5891 5893 5894 5897 5899 5902 5904 5905 5905 5905 5906 5906 5907 5907 5907 5907 5907 5907 5907 5907 5906 5905 5903 5903 5902 5901 5900 5898 5896 5894 5892
5823 5822 5825 5834 5839 5843 5846 5852 5850 5853 5860 5861 5864 5870 5873 5867 5877 5880 5883 5886 5888 5891 5894 5896 5899 5901 5901 5901 5902 5903 5903 5904 5904 5903 5903 5904 5904 5903 5902 5901 5900 5900 5899 5898 5897 5896 5894 5892 5890
5809 5807 5818 5822 5824 5824 5828 5834 5838 5840 5847 5852 5856 5862 5864 5858 5870 5872 5874 5879 5881 5885 5887 5889 5893 5895 5897 5898 5899 5899 5900 5900 5900 5900 5900 5900 5900 5899 5899 5897 5897 5896 5895 5894 5893 5892 5891 5889 5887
5793 5797 5803 5803 5807 5807 5809 5816 5820 5826 5834 5844 5846 5851 5854 5852 5862 5863 5867 5871 5875 5877 5880 5883 5887 5890 5892 5894 5894 5896 5897 5896 5897 5897 5897 5897 5897 5896 5895 5894 5894 5892 5891 5890 5890 5890 5887 5885 5883
5775 5781 5784 5785 5787 5786 5791 5795 5802 5810 5823 5829 5831 5838 5840 5843 5850 5855 5858 5863 5866 5870 5874 5876 5880 5884 5886 5888 5890 5891 5892 5892 5893 5893 5894 5894 5893 5893 5892 5892 5890 5890 5888 5888 5887 5886 5883 5881 5879
5755 5762 5763 5764 5767 5769 5771 5776 5784 5791 5808 5811 5817 5823 5829 5831 5839 5845 5849 5853 5857 5861 5867 5870 5874 5877 5879 5882 5884 5886 5887 5887 5889 5889 5890 5890 5889 5889 5888 5888 5887 5885 5883 5883 5881 5881 5878 5876 5875
5739 5738 5740 5744 5746 5747 5753 5756 5758 5787 5791 5793 5800 5807 5814 5820 5828 5835 5839 5844 5849 5853 5859 5864 5867 5870 5872 5875 5878 5880 5881 5882 5884 5885 5885 5885 5885 5885 5885 5884 5883 5880 5880 5878 5878 5876 5874 5870 5869
5720 5721 5722 5727 5729 5731 5732 5731 5747 5769 5774 5773 5778 5787 5797 5806 5811 5822 5828 5834 5839 5845 5851 5855 5860 5864 5866 5869 5871 5873 5875 5877 5878 5879 5881 5881 5881 5881 5881 5879 5878 5876 5875 5873 5872 5870 5868 5866 5864
5706 5705 5705 5713 5716 5715 5711 5716 5735 5742 5754 5756 5761 5768 5780 5789 5797 5807 5815 5822 5829 5835 5840 5847 5851 5856 5858 5862 5865 5865 5868 5871 5872 5874 5876 5876 5876 5876 5875 5873 5872 5872 5871 5869 5867 5866 5863 5862 5860
5694 5690 5695 5699 5702 5698 5695 5700 5713 5719 5730 5733 5742 5752 5763 5773 5781 5792 5800 5808 5816 5824 5830 5840 5843 5847 5850 5854 5856 5858 5862 5865 5867 5868 5870 5871 5871 5871 5870 5868 5868 5868 5867 5865 5862 5861 5860 5859 5856
5682 5685 5687 5688 5691 5687 5682 5680 5690 5700 5705 5718 5728 5737 5745 5755 5766 5777 5787 5796 5803 5810 5817 5829 5834 5838 5842 5846 5848 5851 5855 5859 5862 5863 5865 5865 5865 5865 5864 5863 5864 5863 5863 5861 5859 5858 5856 5854 5852
5670 5670 5670 5671 5677 5672 5667 5667 5676 5678 5683 5696 5709 5720 5727 5738 5756 5761 5772 5783 5790 5795 5806 5818 5824 5827 5833 5837 5841 5846 5850 5853 5856 5858 5859 5858 5859 5859 5859 5859 5859 5859 5857 5857 5854 5852 5851 5849 5847
5657 5657 5657 5660 5660 5660 5657 5654 5660 5660 5665 5676 5689 5701 5711 5726 5740 5746 5755 5767 5777 5784 5796 5806 5814 5818 5826 5830 5834 5838 5843 5846 5850 5852 5854 5854 5853 5853 5853 5854 5854 5854 5853 5852 5850 5848 5845 5843 5843
5646 5646 5647 5649 5651 5649 5645 5642 5646 5646 5648 5658 5666 5682 5696 5708 5725 5733 5740 5752 5763 5770 5785 5797 5803 5810 5819 5821 5827 5831 5836 5840 5844 5846 5846 5847 5847 5847 5848 5849 5847 5849 5851 5848 5845 5842 5838 5836 5835
5633 5637 5638 5640 5640 5638 5642 5632 5637 5636 5634 5638 5652 5666 5680 5697 5709 5719 5727 5737 5752 5760 5776 5786 5793 5801 5809 5812 5819 5826 5831 5835 5836 5838 5839 5841 5841 5842 5844 5845 5843 5846 5844 5840 5838 5836 5832 5827 5830
5626 5629 5630 5630 5631 5631 5628 5625 5624 5624 5622 5624 5631 5643 5664 5679 5692 5703 5715 5725 5741 5751 5764 5775 5782 5790 5798 5805 5813 5820 5824 5827 5829 5831 5834 5834 5835 5837 5839 5839 5840 5839 5837 5835 5831 5828 5823 5823 5823
5622 5622 5621 5621 5622 5619 5618 5618 5614 5614 5609 5610 5618 5628 5646 5659 5674 5691 5702 5714 5729 5742 5751 5762 5771 5780 5789 5797 5805 5813 5817 5819 5822 5825 5827 5828 5830 5831 5832 5834 5834 5834 5833 5829 5826 5824 5817 5815 5816
5618 5619 5617 5617 5616 5610 5613 5607 5601 5602 5596 5596 5606 5620 5627 5645 5661 5679 5691 5703 5718 5732 5742 5750 5761 5771 5779 5789 5798 5806 5809 5812 5815 5818 5821 5823 5823 5824 5826 5829 5830 5830 5828 5822 5818 5819 5814 5811 5811
5615 5615 5613 5608 5610 5607 5606 5598 5596 5593 5587 5587 5593 5597 5621 5629 5643 5664 5679 5692 5707 5721 5732 5743 5753 5763 5772 5782 5792 5798 5801 5806 5811 5812 5814 5816 5818 5820 5822 5825 5825 5825 5823 5819 5815 5815 5812 5806 5809
5612 5608 5610 5603 5600 5594 5594 5590 5588 5582 5583 5581 5582 5590 5602 5619 5631 5652 5669 5682 5697 5711 5723 5736 5745 5756 5766 5777 5784 5790 5794 5802 5804 5805 5807 5810 5814 5816 5817 5819 5819 5819 5817 5816 5814 5809 5807 5806 5804
5605 5605 5601 5599 5592 5588 5588 5585 5578 5576 5576 5577 5578 5584 5593 5604 5625 5639 5655 5672 5687 5701 5714 5726 5738 5749 5759 5768 5776 5783 5792 5795 5793 5798 5801 5806 5808 5810 5811 5813 5814 5813 5812 5812 5808 5805 5803 5802 5800
5599 5596 5594 5591 5588 5583 5579 5579 5576 5573 5572 5572 5574 5582 5593 5606 5620 5632 5643 5659 5675 5690 5704 5718 5729 5741 5749 5759 5767 5778 5785 5783 5787 5792 5797 5799 5801 5804 5806 5807 5807 5807 5806 5804 5802 5798 5799 5797 5793
5592 5589 5587 5582 5581 5577 5574 5572 5572 5570 5568 5570 5570 5576 5590 5597 5614 5623 5633 5648 5666 5681 5695 5709 5722 5733 5742 5752 5761 5771 5772 5777 5783 5787 5791 5794 5796 5798 5800 5801 5802 5802 5800 5800 5797 5795 5793 5791 5786